Last updated on Dec. 18, 2020, 12:02 a.m. UTC
1 47185U 20088BR 20352.06797244 .05128456 12217-4 35792-3 0 9991 2 47185 53.0401 239.5417 0018971 136.7266 223.5274 16.39351016 4024
Satellite is not in orbit.